Showing default

INTELSAT 29E, 41308

Orbit data source: Space-Track

INTELSAT 29E, 41308 is a payload satellite owned by Intelsat SA (US) (US) in GEO that was launched on Wed, 27 Jan 2016 UTC via an ARIANE 5ECA launch vehicle from the French Guiana (FRGUI). Payload-class satellites include a variety of spacecraft equipped with specific instruments for various scientific and technological missions. These include communications satellites like Starlink; space stations such as the ISS; scientific satellites like the Hubble; Earth observation satellites from companies like Planet Labs, Umbra, and HawkEye 360; GPS; miniature CubeSats for education and research; and military/defense satellites.

Not visible in the next 10 days
Identifier
41308, 2016-004A
Orbit
GEO
Country
Flag of UnknownUnknown / ITSO
Related business
Manufacturer
Boeing/ES
Mission
Non-operational Commercial Communications
Bus & Motor
BSS-702MP, LEROS
Mass
6,552 kg wet, ~2,946 kg dry
Launch date (UTC)
2016-01-27 (10 years ago)
Launch vehicle
ARIANE 5ECA
Launch site
French Guiana (FRGUI)
Object type
Payload
Rocket body
Debris
Shape & HBR
Box + 2 Pan, 22.0 m
Radar Cross Section
59.953 m², Large (>1 m²)

Expand to show TLE details & history
Last TLE update: 20 hours ago

TLE from 20 hours ago
0 INTELSAT 29E
1 41308U 16004A   25350.65392257 -.00000262  00000-0  00000-0 0  9992
2 41308   6.0426  72.5396 0002283 143.2959 236.8203  1.00616684 36449
Epoch: 2025-12-16T15:41Z
TLE epoch observation values (Epoch: 2025-12-16T15:41:38.910Z)
Latitude
2.09776°
Longitude
131.57747°
Altitude
35,694.738 km
Speed
3.078 km/s
True Right ascension
06h 10m 05s
True Declination
2° 05' 44"
Sunlit
Object was in daylight at epoch
Visualization orbit readout
Latitude
Unknown
Longitude
Unknown
Altitude
Unknown
Speed
Unknown
Apparent Right ascension
Unknown
Apparent Declination
Unknown
Sunlit
N/A
Visualization observer readout
Local Sidereal Time
10:39:24
Azimuth
Unknown
Elevation
Unknown
Doppler factor
Unknown
Orbital elements
Apogee altitude
35,700.843 km
Perigee altitude
35,681.634 km
Semi-major axis
42,069.376 km
Eccentricity
0.00023
Inclination
6.0426°
RAAN
72.5396°
Arg. of periapsis
143.2959°
True anomaly
236.79841°
Mean anomaly
236.8203°
Eccentric anomaly
236.80935°
Mean motion
0.25153 °/min
Orbital period
1,431.23 mins
BSTAR
0
Loading maneuver chart data...
Computing Atmospheric mass density...
Loading historical data...
Loading historical data...
Loading historical data...
Loading historical data...
Loading historical data...
Loading historical data...
Loading historical data...
Other satellites on launch #4 in the year 2016 (2016-01-27 UTC)

Documentation

Showing up to 5 results
|